This is the latest recevied weather packets stored in our database for station/object EA5EN-10. If no packets are shown the sender has not sent any weather packets the latest 10 day(s).
| Time | Temp. | Humidity | Pressure | Rain* | Wind** | Luminosity | Snow |
|---|---|---|---|---|---|---|---|
| 1788613679 | 31.11° C | 47% | 1033.5 hPa | - | - | - | - |
| 1788612621 | 31.11° C | 48% | 1033.6 hPa | - | - | - | - |
| 1788611563 | 30.56° C | 48% | 1033.7 hPa | - | - | - | - |
| 1788609622 | 30.56° C | 49% | 1034.3 hPa | - | - | - | - |
| 1788608389 | 30.56° C | 49% | 1034.4 hPa | - | - | - | - |
| 1788606274 | 30.56° C | 50% | 1034.6 hPa | - | - | - | - |
| 1788605567 | 30° C | 50% | 1034.9 hPa | - | - | - | - |
| 1788603275 | 30° C | 50% | 1035.2 hPa | - | - | - | - |
| 1788602042 | 30° C | 50% | 1035.2 hPa | - | - | - | - |
| 1788601160 | 30° C | 50% | 1035.1 hPa | - | - | - | - |
| 1788599926 | 30° C | 50% | 1035.1 hPa | - | - | - | - |
| 1788598876 | 30° C | 50% | 1035.1 hPa | - | - | - | - |
| 1788597818 | 30° C | 50% | 1034.9 hPa | - | - | - | - |
| 1788596753 | 30° C | 50% | 1034.8 hPa | - | - | - | - |
| 1788595695 | 30° C | 50% | 1034.7 hPa | - | - | - | - |
| 1788593754 | 30.56° C | 50% | 1034.9 hPa | - | - | - | - |
| 1788592521 | 30.56° C | 50% | 1034.8 hPa | - | - | - | - |
| 1788591471 | 30.56° C | 50% | 1034.7 hPa | - | - | - | - |
| 1788590405 | 30.56° C | 50% | 1034.4 hPa | - | - | - | - |
| 1788589348 | 30.56° C | 49% | 1034.2 hPa | - | - | - | - |
| 1788588290 | 31.11° C | 49% | 1033.9 hPa | - | - | - | - |
| 1788585116 | 31.11° C | 49% | 1033.2 hPa | - | - | - | - |
| 1788584058 | 31.11° C | 49% | 1033.2 hPa | - | - | - | - |
| 1788583000 | 31.11° C | 49% | 1033.1 hPa | - | - | - | - |
| 1788581942 | 31.67° C | 49% | 1033.3 hPa | - | - | - | - |
* Rain since midnight (hover to see other rain measurements)
** Current wind speed in m/s (hover to see current wind gust speed)